FW2462 Weather Reports


time (UTC)temp
C
wind
direction
speed
KPH
gust
KPH
rain 1hr
cm
rain 24hr
cm
rain mn
cm
humidity
%
barometer
mb
20260508095809 5 6 0.0 0.0 0.03 0.43 0.03 98 1018.3
20260508095308 5 6 0.0 0.0 0.03 0.43 0.03 98 1018.3
20260508094806 5 6 0.0 0.0 0.03 0.43 0.03 98 1018.3
20260508094302 5 6 0.0 0.0 0.03 0.43 0.03 98 1018.1
20260508093800 5 6 0.0 0.0 0.03 0.43 0.03 98 1018.1
20260508093303 5 6 0.0 0.0 0.03 0.43 0.03 98 1018.2
20260508092757 5 6 0.0 0.0 0.03 0.43 0.03 98 1018.2
20260508092250 5 6 0.0 0.0 0.03 0.43 0.03 97 1018.2
20260508091745 5 6 0.0 0.0 0.03 0.43 0.03 98 1018.1
20260508091238 6 6 0.0 0.0 0.03 0.43 0.03 98 1018.0
20260508090733 6 6 0.0 0.0 0.03 0.43 0.03 98 1018.1
20260508090226 6 6 0.0 0.0 0.00 0.41 0.00 98 1018.1
20260508085720 6 6 0.0 0.0 0.00 0.41 0.00 98 1018.0
20260508085214 6 6 0.0 0.0 0.00 0.41 0.00 98 1017.9
20260508084709 6 6 0.0 0.0 0.00 0.41 0.00 97 1018.0
20260508084203 6 6 0.0 0.0 0.00 0.41 0.00 97 1017.9
20260508083657 6 6 0.0 0.0 0.00 0.41 0.00 97 1017.9
20260508083151 6 6 0.0 0.0 0.00 0.41 0.00 97 1017.9
20260508082644 6 6 0.0 0.0 0.00 0.41 0.00 97 1017.6
20260508082139 6 6 0.0 0.0 0.00 0.41 0.00 98 1017.6
20260508081633 6 6 0.0 0.0 0.00 0.41 0.00 98 1017.6
20260508081127 6 6 0.0 0.0 0.00 0.41 0.00 98 1017.5
20260508080621 6 6 0.0 0.0 0.00 0.41 0.00 97 1017.5
20260508080338 6 6 0.0 0.0 0.00 0.41 0.00 97 1017.5
20260508075609 6 6 0.0 0.0 0.00 0.41 0.00 97 1017.4
20260508075103 6 6 0.0 0.0 0.00 0.41 0.00 97 1017.5
20260508074556 6 6 0.0 0.0 0.00 0.41 0.00 97 1017.5
20260508074539 6 6 0.0 0.0 0.00 0.41 0.00 97 1017.5
20260508073545 6 6 0.0 0.0 0.00 0.41 0.00 97 1017.4
20260508073038 6 6 0.0 0.0 0.00 0.41 0.00 97 1017.4
20260508072532 6 6 0.0 0.0 0.00 0.41 0.00 97 1017.4
20260508072244 6 6 0.0 0.0 0.00 0.41 0.00 97 1017.5
20260508071521 6 6 0.0 0.0 0.00 0.41 0.00 97 1017.4
20260508071014 6 6 0.0 0.0 0.00 0.41 0.00 97 1017.4
20260508070510 6 6 0.0 0.0 0.00 0.41 0.00 97 1017.3
20260508070002 7 6 0.0 0.0 0.00 0.41 0.00 97 1017.2
20260508065457 7 6 0.0 0.0 0.00 0.41 0.00 97 1017.0
20260508064950 7 6 0.0 0.0 0.00 0.41 0.00 97 1017.3
20260508064445 7 6 0.0 0.0 0.00 0.41 0.00 97 1017.4
20260508063938 7 6 0.0 0.0 0.00 0.41 0.00 97 1017.4
20260508063432 7 6 0.0 0.0 0.00 0.41 0.00 97 1017.2
20260508062926 7 6 0.0 0.0 0.00 0.41 0.00 97 1017.2
20260508062421 7 6 0.0 0.0 0.00 0.41 0.00 96 1017.4
20260508061914 7 6 0.0 0.0 0.00 0.41 0.00 96 1017.4
20260508061409 7 6 0.0 0.0 0.00 0.41 0.00 96 1017.4
20260508061355 7 6 0.0 0.0 0.00 0.41 0.00 96 1017.3
20260508060626 7 6 0.0 0.0 0.00 0.41 0.00 96 1017.3
20260508055850 7 6 0.0 0.0 0.00 0.41 0.00 95 1017.2
20260508055345 8 6 0.0 0.0 0.00 0.41 0.00 95 1017.3
20260508055102 8 6 0.0 0.0 0.00 0.41 0.00 95 1017.3
20260508054333 8 6 0.0 1.6 0.00 0.41 0.00 94 1017.4
20260508054049 8 6 0.0 3.2 0.00 0.41 0.00 94 1017.2
20260508053320 8 7 0.0 3.2 0.00 0.41 0.00 94 1017.2
20260508052814 9 354 0.0 1.6 0.00 0.41 0.00 93 1017.0
20260508052527 9 347 0.0 1.6 0.00 0.41 0.00 93 1017.0
20260508051803 9 340 0.0 3.2 0.00 0.41 0.00 90 1016.9
20260508051256 9 340 0.0 3.2 0.00 0.41 0.00 89 1016.8
20260508050754 9 186 0.0 3.2 0.00 0.43 0.00 90 1016.9
20260508050024 9 296 0.0 1.6 0.00 0.46 0.00 90 1016.8
20260508045319 9 296 0.0 1.6 0.00 0.46 0.00 89 1016.8
20260508044255 9 300 0.0 1.6 0.00 0.46 0.00 90 1016.9
20260508043749 9 300 0.0 1.6 0.00 0.46 0.00 90 1016.7
20260508043248 9 300 0.0 1.6 0.00 0.46 0.00 89 1016.7
20260508042746 9 300 0.0 1.6 0.00 0.46 0.00 90 1016.6
20260508042245 9 306 0.0 1.6 0.00 0.46 0.00 91 1016.5
20260508041744 9 323 0.0 4.8 0.00 0.46 0.00 91 1016.5
20260508041245 9 323 0.0 4.8 0.00 0.46 0.00 91 1016.5
20260508040745 9 230 0.0 1.6 0.00 0.46 0.00 91 1016.4
20260508040245 9 255 0.0 1.6 0.00 0.46 0.00 90 1016.5
20260508035738 9 255 0.0 1.6 0.00 0.46 0.46 90 1016.4
20260508035500 9 268 0.0 1.6 0.00 0.46 0.46 90 1016.4
20260508034726 9 268 0.0 3.2 0.00 0.46 0.46 90 1016.3
20260508034220 9 267 0.0 3.2 0.00 0.46 0.46 92 1016.3
20260508033714 9 259 0.0 3.2 0.00 0.46 0.46 92 1016.2
20260508033208 9 248 0.0 3.2 0.00 0.46 0.46 92 1016.2
20260508032702 9 259 0.0 1.6 0.00 0.46 0.46 94 1016.2
20260508032156 9 259 0.0 1.6 0.00 0.48 0.46 94 1016.2
20260508031650 9 321 0.0 0.0 0.00 0.48 0.46 94 1016.1
20260508031144 9 330 0.0 0.0 0.00 0.51 0.46 94 1016.1
20260508030644 9 330 0.0 0.0 0.00 0.51 0.46 94 1016.2
20260508030141 9 330 0.0 1.6 0.00 0.53 0.46 94 1016.2
20260508025640 9 330 0.0 1.6 0.00 0.56 0.46 95 1016.2
20260508025140 9 334 0.0 3.2 0.00 0.58 0.46 95 1016.1
20260508024913 9 334 0.0 3.2 0.00 0.58 0.46 95 1016.1
20260508024139 9 180 0.0 1.6 0.00 0.61 0.46 96 1016.0
20260508024123 9 280 0.0 1.6 0.00 0.61 0.46 95 1015.9
20260508023138 10 279 0.0 1.6 0.00 0.61 0.46 95 1015.8
20260508022635 10 242 0.0 1.6 0.00 0.61 0.46 95 1015.7
20260508022133 10 238 0.0 1.6 0.00 0.61 0.46 95 1015.7
20260508021633 10 228 0.0 1.6 0.00 0.61 0.46 95 1015.6
20260508021413 10 228 0.0 1.6 0.00 0.61 0.46 94 1015.5
20260508020632 10 228 0.0 1.6 0.00 0.61 0.46 94 1015.5
20260508020133 10 229 0.0 1.6 0.00 0.61 0.46 95 1015.4
20260508015634 10 224 0.0 3.2 0.00 0.64 0.46 95 1015.4
20260508015348 10 240 0.0 3.2 0.00 0.64 0.46 96 1015.3
20260508014629 10 261 0.0 1.6 0.00 0.64 0.46 96 1015.2
20260508014130 10 259 0.0 1.6 0.00 0.64 0.46 97 1015.1
20260508013630 10 259 0.0 1.6 0.00 0.64 0.46 97 1015.1
20260508013128 10 259 0.0 0.0 0.00 0.64 0.46 97 1015.0
20260508012852 10 259 0.0 1.6 0.00 0.64 0.46 97 1014.9
20260508012130 10 259 0.0 1.6 0.00 0.64 0.46 97 1014.8
20260508011630 11 191 0.0 1.6 0.00 0.64 0.46 97 1014.8
20260508011130 11 318 0.0 0.0 0.00 0.66 0.46 97 1014.6
20260508010624 11 353 0.0 3.2 0.00 0.66 0.46 97 1014.5
20260508010126 11 353 0.0 3.2 0.00 0.66 0.46 97 1014.5
20260508005625 11 215 0.0 3.2 0.00 0.69 0.46 97 1014.4
20260508005126 11 328 0.0 1.6 0.00 0.69 0.46 97 1014.4
20260508004624 11 356 1.6 9.7 0.00 0.69 0.46 98 1014.4
20260508004124 11 356 1.6 9.7 0.00 0.69 0.46 98 1014.5
20260508003624 11 232 0.0 3.2 0.00 0.69 0.46 98 1014.6
20260508003125 12 156 0.0 1.6 0.00 0.71 0.46 98 1014.5
20260508002855 12 284 0.0 3.2 0.00 0.71 0.46 98 1014.5
20260508002119 12 281 0.0 3.2 0.00 0.71 0.46 98 1014.5
20260508001827 12 285 0.0 0.0 0.00 0.71 0.46 98 1014.4
20260508001703 12 29 0.0 1.6 0.00 0.71 0.46 98 1014.6
20260508000829 12 285 0.0 0.0 0.00 0.71 0.46 98 1014.4
20260508000055 12 285 0.0 0.0 0.00 0.71 0.46 98 1014.2
20260507235819 12 285 0.0 0.0 0.00 0.71 0.46 98 1014.2
20260507235043 12 304 0.0 0.0 0.00 0.71 0.46 98 1014.2
20260507234536 12 304 0.0 0.0 0.00 0.71 0.46 98 1014.2
20260507234506 13 304 0.0 0.0 0.00 0.71 0.46 98 1014.1
20260507233525 13 285 0.0 1.6 0.00 0.71 0.46 98 1014.0
20260507233026 13 285 0.0 1.6 0.00 0.71 0.46 98 1014.0
20260507232524 13 286 0.0 0.0 0.00 0.71 0.46 98 1013.8
20260507232022 13 286 0.0 1.6 0.00 0.71 0.46 98 1013.9
20260507231022 13 290 0.0 1.6 0.00 0.71 0.46 98 1013.4
20260507230522 13 24 0.0 3.2 0.00 0.71 0.46 98 1013.4
20260507230023 13 25 0.0 3.2 0.00 0.71 0.46 98 1013.4
20260507225523 13 23 0.0 3.2 0.00 0.71 0.46 98 1013.7
20260507225022 13 243 0.0 3.2 0.00 0.71 0.46 98 1013.4
20260507224520 13 250 0.0 3.2 0.00 0.71 0.46 97 1013.4
20260507224020 13 279 0.0 6.4 0.00 0.71 0.46 97 1013.2
20260507223521 13 237 0.0 6.4 0.00 0.71 0.46 97 1013.3
20260507223021 13 31 0.0 4.8 0.00 0.71 0.46 97 1013.1
20260507222744 13 274 0.0 1.6 0.00 0.71 0.46 97 1013.3
20260507221518 13 264 0.0 3.2 0.00 0.71 0.46 97 1013.2
20260507221019 14 12 1.6 3.2 0.00 0.71 0.46 97 1013.3
20260507220513 14 1 1.6 8.0 0.00 0.71 0.46 98 1013.0
20260507220006 14 293 1.6 8.0 0.00 0.71 0.46 97 1013.0
20260507215501 14 32 0.0 8.0 0.00 0.71 0.46 98 1013.0
20260507215218 14 150 0.0 6.4 0.00 0.71 0.46 98 1012.9
20260507214709 14 17 1.6 6.4 0.00 0.71 0.46 98 1012.9
20260507213943 14 63 1.6 8.0 0.00 0.71 0.46 98 1013.0
20260507212931 13 306 1.6 8.0 0.00 0.71 0.46 98 1012.8
20260507212425 13 243 1.6 8.0 0.00 0.71 0.46 98 1012.9
20260507212143 14 255 1.6 8.0 0.00 0.71 0.46 98 1012.8
20260507211413 14 355 1.6 8.0 0.00 0.71 0.46 98 1012.8
20260507210907 13 359 3.2 8.0 0.00 0.71 0.46 98 1012.8
20260507210401 14 41 3.2 8.0 0.00 0.71 0.46 98 1012.7
20260507210115 14 52 1.6 6.4 0.00 0.71 0.46 98 1012.6
20260507205605 14 66 0.0 3.2 0.00 0.71 0.46 99 1012.7
20260507204843 14 28 0.0 4.8 0.00 0.71 0.46 99 1012.6
20260507204337 13 53 0.0 4.8 0.03 0.71 0.46 98 1012.5
20260507204326 13 355 0.0 4.8 0.15 0.71 0.46 98 1012.7
20260507203548 13 20 0.0 4.8 0.15 0.71 0.46 98 1012.8
20260507202819 13 269 1.6 9.7 0.15 0.71 0.46 99 1012.7
20260507202312 13 37 1.6 9.7 0.18 0.71 0.46 98 1012.8
20260507201806 13 329 1.6 6.4 0.18 0.71 0.46 98 1013.0
20260507201303 13 15 3.2 14.5 0.18 0.71 0.46 98 1013.1
20260507200754 13 345 1.6 14.5 0.18 0.71 0.46 98 1013.0
20260507200249 13 46 3.2 11.3 0.18 0.71 0.46 98 1013.0
20260507195743 13 22 3.2 11.3 0.18 0.71 0.46 98 1013.0
20260507195237 13 4 3.2 9.7 0.18 0.71 0.46 98 1013.2
20260507194730 13 41 1.6 9.7 0.18 0.71 0.46 99 1013.2
20260507194225 13 65 3.2 12.9 0.13 0.66 0.43 99 1013.0
20260507193719 13 30 4.8 16.1 0.03 0.56 0.30 98 1013.2
20260507193212 13 46 3.2 16.1 0.03 0.56 0.30 98 1013.2
20260507192931 13 23 3.2 9.7 0.00 0.53 0.28 98 1013.1
20260507192201 13 351 1.6 8.0 0.00 0.53 0.28 98 1013.0
20260507191655 13 54 1.6 6.4 0.00 0.53 0.28 98 1012.9
20260507191151 13 54 1.6 6.4 0.00 0.53 0.28 98 1012.7
20260507190643 13 357 1.6 6.4 0.00 0.53 0.28 98 1012.9
20260507190401 13 30 1.6 6.4 0.00 0.53 0.28 98 1013.0
20260507185637 13 27 1.6 11.3 0.00 0.53 0.28 98 1013.2
20260507185137 13 262 3.2 14.5 0.00 0.53 0.28 98 1013.2
20260507184637 14 76 3.2 14.5 0.00 0.53 0.28 98 1012.9
20260507184133 14 317 1.6 8.0 0.00 0.53 0.28 98 1013.0
20260507183633 14 20 3.2 20.9 0.00 0.53 0.28 98 1013.0
20260507183134 14 53 4.8 20.9 0.00 0.53 0.28 98 1013.0
20260507182637 15 341 3.2 11.3 0.00 0.53 0.28 98 1013.1
20260507182359 15 58 1.6 11.3 0.00 0.53 0.28 98 1013.0
20260507181633 15 47 1.6 16.1 0.00 0.53 0.28 98 1013.0
20260507181131 15 46 1.6 16.1 0.00 0.53 0.28 98 1012.9
20260507180629 15 98 3.2 12.9 0.00 0.53 0.28 98 1012.9
20260507180130 15 63 3.2 12.9 0.00 0.53 0.28 98 1013.1
20260507175629 15 58 1.6 11.3 0.00 0.53 0.28 98 1013.0
20260507175129 15 27 1.6 12.9 0.03 0.53 0.28 98 1013.1
20260507174855 15 347 3.2 12.9 0.03 0.53 0.28 98 1013.1
20260507174128 15 49 3.2 11.3 0.05 0.53 0.28 98 1013.1
20260507173626 15 344 1.6 8.0 0.10 0.56 0.28 98 1013.1
20260507173126 15 10 3.2 11.3 0.13 0.56 0.28 98 1013.1
20260507172621 15 53 3.2 14.5 0.13 0.56 0.28 98 1013.2
20260507172111 15 41 3.2 14.5 0.15 0.56 0.28 98 1013.2
20260507171606 16 56 1.6 9.7 0.18 0.56 0.28 98 1013.3
20260507171105 16 355 1.6 8.0 0.18 0.58 0.28 98 1013.3
20260507170605 16 46 1.6 8.0 0.18 0.58 0.28 98 1013.2
20260507170119 16 77 0.0 4.8 0.18 0.58 0.28 98 1013.2
20260507170107 16 114 1.6 8.0 0.18 0.58 0.28 98 1013.1
20260507165106 16 70 1.6 12.9 0.15 0.56 0.25 98 1013.0
20260507164609 16 67 3.2 12.9 0.15 0.56 0.25 98 1013.0
20260507164108 16 354 1.6 6.4 0.13 0.53 0.23 98 1012.8
20260507163608 16 56 0.0 3.2 0.08 0.48 0.18 98 1012.9
20260507163108 16 348 0.0 3.2 0.05 0.46 0.15 98 1012.9
20260507162603 16 3 0.0 6.4 0.05 0.46 0.15 98 1012.9
20260507162327 16 12 0.0 6.4 0.03 0.43 0.13 98 1012.8
20260507161821 16 81 0.0 4.8 0.00 0.41 0.10 98 1012.8
20260507161104 16 6 0.0 3.2 0.00 0.41 0.10 98 1012.8
20260507160604 16 25 0.0 3.2 0.00 0.41 0.10 98 1012.9
20260507160104 16 7 0.0 3.2 0.00 0.41 0.10 98 1013.0
20260507155604 16 359 0.0 6.4 0.00 0.41 0.10 98 1013.1
20260507155101 16 331 0.0 6.4 0.00 0.41 0.10 98 1013.1
20260507154822 16 30 0.0 6.4 0.00 0.41 0.10 98 1012.8
20260507154101 16 1 0.0 4.8 0.00 0.41 0.10 98 1012.8
20260507153824 16 4 0.0 4.8 0.00 0.41 0.10 98 1012.9
20260507152601 16 5 0.0 4.8 0.00 0.41 0.10 98 1013.1
20260507151601 16 15 0.0 4.8 0.00 0.43 0.10 98 1013.3
20260507151100 16 20 0.0 4.8 0.00 0.43 0.10 98 1013.2
20260507150559 16 17 0.0 4.8 0.00 0.43 0.10 98 1013.2
20260507150056 16 8 1.6 4.8 0.00 0.43 0.10 98 1013.2
20260507145557 16 62 0.0 6.4 0.00 0.43 0.10 98 1013.0
20260507145322 16 8 0.0 6.4 0.00 0.43 0.10 98 1013.2
20260507144554 16 25 0.0 8.0 0.00 0.43 0.10 98 1013.3
20260507144055 16 342 0.0 8.0 0.00 0.43 0.10 98 1013.1
20260507143549 16 7 0.0 1.6 0.00 0.43 0.10 98 1013.1
20260507143044 16 357 0.0 3.2 0.00 0.43 0.10 98 1013.1
20260507142755 16 13 0.0 3.2 0.00 0.43 0.10 98 1012.7
20260507142032 16 40 0.0 4.8 0.00 0.43 0.10 98 1012.9
20260507141526 16 40 1.6 4.8 0.00 0.43 0.10 98 1013.1
20260507141020 16 344 1.6 6.4 0.00 0.43 0.10 98 1012.8
20260507140513 17 336 0.0 6.4 0.00 0.43 0.10 99 1012.5
20260507140007 17 30 0.0 3.2 0.00 0.43 0.10 99 1012.4
20260507135502 17 89 0.0 6.4 0.00 0.43 0.10 99 1012.6
20260507134955 17 326 0.0 6.4 0.00 0.43 0.10 99 1012.6
20260507134450 17 8 0.0 3.2 0.03 0.43 0.10 99 1012.7
20260507133943 17 340 0.0 3.2 0.03 0.43 0.10 99 1012.6
20260507133438 17 41 0.0 0.0 0.03 0.43 0.10 99 1012.6
20260507132932 17 41 0.0 0.0 0.03 0.43 0.10 99 1012.7
20260507132431 17 40 0.0 0.0 0.03 0.43 0.10 99 1012.4
20260507131426 17 94 0.0 1.6 0.03 0.43 0.10 99 1012.9
20260507130926 17 128 0.0 1.6 0.03 0.43 0.10 99 1013.3
20260507130426 17 205 0.0 1.6 0.03 0.43 0.10 99 1013.4
20260507125927 16 205 0.0 1.6 0.03 0.43 0.10 99 1013.2
20260507125425 16 197 0.0 3.2 0.03 0.43 0.10 99 1013.3
20260507124925 16 342 0.0 3.2 0.05 0.43 0.10 99 1013.5
20260507124427 16 273 0.0 1.6 0.03 0.41 0.08 99 1013.8
20260507124150 16 178 0.0 1.6 0.03 0.41 0.08 99 1013.8
20260507123421 16 229 0.0 1.6 0.03 0.41 0.08 99 1014.1
20260507122926 16 250 0.0 1.6 0.03 0.41 0.08 99 1014.0
20260507122640 16 233 0.0 4.8 0.03 0.41 0.08 99 1014.0
20260507121921 16 16 0.0 4.8 0.03 0.41 0.08 99 1014.1
20260507120921 16 217 1.6 6.4 0.03 0.41 0.08 99 1013.7
20260507120423 16 225 0.0 4.8 0.03 0.41 0.08 99 1013.7
20260507115416 16 206 1.6 6.4 0.03 0.41 0.08 99 1013.2
20260507114910 16 226 1.6 4.8 0.00 0.38 0.05 99 1013.4
20260507114404 16 210 1.6 4.8 0.00 0.38 0.05 99 1013.7
20260507113858 16 195 1.6 3.2 0.00 0.38 0.05 99 1013.4
20260507113618 16 207 1.6 3.2 0.00 0.38 0.05 99 1013.5
20260507113112 16 176 0.0 3.2 0.00 0.38 0.05 99 1013.1
20260507112340 16 199 0.0 0.0 0.00 0.38 0.05 99 1012.9
20260507111835 16 199 0.0 0.0 0.00 0.38 0.05 99 1012.8
20260507111328 16 257 0.0 0.0 0.00 0.38 0.05 99 1013.1
20260507110822 16 257 0.0 0.0 0.00 0.38 0.05 99 1013.1
20260507110316 16 257 0.0 0.0 0.00 0.38 0.05 99 1013.0
20260507105810 16 257 0.0 0.0 0.00 0.38 0.05 99 1012.9
20260507105306 16 257 0.0 0.0 0.00 0.38 0.05 99 1012.9
20260507104758 16 257 0.0 0.0 0.00 0.38 0.05 99 1012.8
20260507104252 16 257 0.0 0.0 0.00 0.38 0.05 99 1013.0
20260507103746 16 257 0.0 1.6 0.00 0.38 0.05 99 1013.0
20260507103242 16 257 0.0 1.6 0.00 0.38 0.05 99 1013.0
20260507102734 16 257 0.0 4.8 0.00 0.38 0.05 99 1012.8
20260507102228 16 218 1.6 4.8 0.00 0.38 0.05 99 1012.7
20260507101723 16 217 1.6 4.8 0.00 0.38 0.05 99 1012.6
20260507101216 16 198 1.6 4.8 0.00 0.38 0.05 99 1012.6
20260507100710 16 213 1.6 4.8 0.00 0.38 0.05 99 1012.5
20260507100204 16 211 1.6 4.8 0.00 0.38 0.05 99 1012.6